• In Hungary
  • List of Countries
  • For 7 days
  • Water Temperature
  • Satellite Maps
  • Weather Map
  • News
  • Weather Widgets
  • user-avatar
    Login

    Hourly Weather Potok

    Today, 20 October, Friday

    Time Temperature Precipitation Wind Pressure Humidity
    00:00 +10°C° 0 mm 3 mps 757 mmHg 91%
    01:00 +10°C° 0 mm 3 mps 757 mmHg 93%
    02:00 +10°C° 0 mm 2 mps 757 mmHg 93%
    03:00 +10°C° 0 mm 2 mps 757 mmHg 94%
    04:00 +10°C° 0 mm 2 mps 757 mmHg 94%
    05:00 +10°C° 0 mm 2 mps 757 mmHg 95%
    06:00 +10°C° 0 mm 2 mps 757 mmHg 95%
    07:00 +10°C° 0 mm 2 mps 757 mmHg 95%
    08:00 +11°C° 0 mm 3 mps 757 mmHg 90%
    09:00 +13°C° 0 mm 3 mps 757 mmHg 84%
    10:00 +14°C° 0 mm 3 mps 757 mmHg 78%
    11:00 +17°C° 0 mm 3 mps 757 mmHg 74%
    12:00 +18°C° 0 mm 3 mps 756 mmHg 70%
    13:00 +19°C° 0 mm 3 mps 756 mmHg 66%
    14:00 +18°C° 0 mm 3 mps 756 mmHg 69%
    15:00 +18°C° 0 mm 3 mps 756 mmHg 71%
    16:00 +17°C° 0 mm 2 mps 756 mmHg 74%
    17:00 +17°C° 0 mm 2 mps 756 mmHg 76%
    18:00 +16°C° 0 mm 3 mps 756 mmHg 78%
    19:00 +14°C° 0 mm 3 mps 756 mmHg 80%
    20:00 +14°C° 0 mm 3 mps 756 mmHg 81%
    21:00 +14°C° 0 mm 3 mps 756 mmHg 81%
    22:00 +13°C° 0 mm 3 mps 756 mmHg 82%
    23:00 +13°C° 0 mm 3 mps 756 mmHg 81%

    Tomorrow, 21 October, Saturday

    Time Temperature Precipitation Wind Pressure Humidity
    00:00 +14°C° 0 mm 2 mps 756 mmHg 81%
    01:00 +14°C° 0 mm 2 mps 756 mmHg 80%
    02:00 +14°C° 0.2 mm 2 mps 755 mmHg 82%
    03:00 +14°C° 0.2 mm 2 mps 755 mmHg 83%
    04:00 +14°C° 0.2 mm 2 mps 755 mmHg 84%
    05:00 +14°C° 0.1 mm 2 mps 755 mmHg 85%
    06:00 +13°C° 0.1 mm 2 mps 755 mmHg 85%
    07:00 +13°C° 0.1 mm 2 mps 755 mmHg 86%
    08:00 +14°C° 0.1 mm 2 mps 755 mmHg 82%
    09:00 +14°C° 0.1 mm 3 mps 755 mmHg 78%
    10:00 +16°C° 0.1 mm 3 mps 755 mmHg 74%
    11:00 +16°C° 0.1 mm 3 mps 755 mmHg 71%
    12:00 +15°C° 0.1 mm 4 mps 755 mmHg 68%
    13:00 +17°C° 0.1 mm 4 mps 755 mmHg 65%
    14:00 +16°C° 0.1 mm 3 mps 755 mmHg 69%
    15:00 +16°C° 0.1 mm 3 mps 755 mmHg 72%
    16:00 +15°C° 0.1 mm 2 mps 755 mmHg 75%
    17:00 +14°C° 0 mm 2 mps 755 mmHg 79%
    18:00 +13°C° 0 mm 2 mps 755 mmHg 84%
    19:00 +12°C° 0 mm 1 mps 755 mmHg 88%
    20:00 +12°C° 0 mm 1 mps 755 mmHg 89%
    21:00 +12°C° 0 mm 1 mps 755 mmHg 90%
    22:00 +11°C° 0 mm 1 mps 755 mmHg 91%
    23:00 +11°C° 0 mm 1 mps 755 mmHg 91%

    Day after tomorrow, 22 October, Sunday

    Time Temperature Precipitation Wind Pressure Humidity
    00:00 +11°C° 0 mm 1 mps 755 mmHg 92%
    01:00 +11°C° 0 mm 1 mps 755 mmHg 92%
    02:00 +10°C° 0 mm 1 mps 755 mmHg 93%
    03:00 +10°C° 0 mm 1 mps 755 mmHg 93%
    04:00 +9°C° 0 mm 2 mps 755 mmHg 93%
    05:00 +9°C° 0 mm 2 mps 755 mmHg 92%
    06:00 +9°C° 0 mm 2 mps 754 mmHg 91%
    07:00 +10°C° 0 mm 3 mps 754 mmHg 90%
    08:00 +10°C° 0.2 mm 3 mps 754 mmHg 86%
    09:00 +11°C° 0.2 mm 3 mps 754 mmHg 82%
    10:00 +12°C° 0.2 mm 3 mps 755 mmHg 78%
    11:00 +12°C° 0.3 mm 3 mps 754 mmHg 80%
    12:00 +13°C° 0.3 mm 2 mps 754 mmHg 82%
    13:00 +13°C° 0.3 mm 2 mps 754 mmHg 84%
    14:00 +13°C° 0.4 mm 2 mps 754 mmHg 87%
    15:00 +12°C° 0.4 mm 2 mps 754 mmHg 89%
    16:00 +12°C° 0.4 mm 1 mps 754 mmHg 92%
    17:00 +12°C° 0.1 mm 2 mps 754 mmHg 93%
    18:00 +12°C° 0.1 mm 2 mps 754 mmHg 94%
    19:00 +10°C° 0.1 mm 2 mps 754 mmHg 95%
    20:00 +10°C° 0 mm 2 mps 754 mmHg 94%
    21:00 +10°C° 0 mm 2 mps 754 mmHg 94%
    22:00 +10°C° 0 mm 2 mps 754 mmHg 93%
    23:00 +10°C° 0 mm 2 mps 754 mmHg 93%

    23 October, Monday

    Time Temperature Precipitation Wind Pressure Humidity
    00:00 +10°C° 0 mm 2 mps 754 mmHg 92%
    01:00 +11°C° 0 mm 1 mps 754 mmHg 92%
    02:00 +9°C° 0.1 mm 2 mps 754 mmHg 92%
    03:00 +9°C° 0.1 mm 2 mps 753 mmHg 92%
    04:00 +9°C° 0.1 mm 2 mps 753 mmHg 92%
    05:00 +9°C° 0.3 mm 2 mps 753 mmHg 92%
    06:00 +9°C° 0.3 mm 3 mps 753 mmHg 92%
    07:00 +9°C° 0.3 mm 3 mps 753 mmHg 92%
    08:00 +9°C° 0.3 mm 3 mps 753 mmHg 90%
    09:00 +10°C° 0.3 mm 3 mps 753 mmHg 89%
    10:00 +10°C° 0.3 mm 3 mps 753 mmHg 87%
    11:00 +10°C° 0.4 mm 3 mps 753 mmHg 86%
    12:00 +11°C° 0.4 mm 3 mps 753 mmHg 84%
    13:00 +11°C° 0.4 mm 3 mps 753 mmHg 83%
    14:00 +11°C° 0.6 mm 3 mps 754 mmHg 85%
    15:00 +10°C° 0.6 mm 3 mps 754 mmHg 87%
    16:00 +10°C° 0.6 mm 3 mps 754 mmHg 88%
    17:00 +10°C° 0.7 mm 3 mps 754 mmHg 90%
    18:00 +10°C° 0.7 mm 3 mps 754 mmHg 91%
    19:00 +10°C° 0.7 mm 3 mps 755 mmHg 92%
    20:00 +9°C° 0.7 mm 3 mps 755 mmHg 92%
    21:00 +9°C° 0.7 mm 3 mps 755 mmHg 93%
    22:00 +9°C° 0.7 mm 3 mps 755 mmHg 93%
    23:00 +9°C° 0.6 mm 3 mps 755 mmHg 93%

    24 October, Tuesday

    Time Temperature Precipitation Wind Pressure Humidity
    00:00 +9°C° 0.6 mm 3 mps 756 mmHg 93%
    01:00 +9°C° 0.6 mm 3 mps 756 mmHg 93%
    02:00 +9°C° 0.5 mm 3 mps 756 mmHg 93%
    03:00 +9°C° 0.5 mm 3 mps 756 mmHg 93%
    04:00 +9°C° 0.5 mm 3 mps 756 mmHg 94%
    05:00 +8°C° 0.3 mm 3 mps 757 mmHg 94%
    06:00 +8°C° 0.3 mm 3 mps 757 mmHg 94%
    07:00 +8°C° 0.3 mm 3 mps 757 mmHg 94%
    08:00 +9°C° 0.1 mm 3 mps 758 mmHg 90%
    09:00 +10°C° 0.1 mm 3 mps 758 mmHg 86%
    10:00 +10°C° 0.1 mm 3 mps 759 mmHg 82%
    11:00 +11°C° 0 mm 3 mps 759 mmHg 79%
    12:00 +12°C° 0 mm 2 mps 759 mmHg 76%
    13:00 +13°C° 0 mm 2 mps 759 mmHg 73%
    14:00 +12°C° 0 mm 2 mps 759 mmHg 74%
    15:00 +12°C° 0 mm 2 mps 760 mmHg 76%
    16:00 +12°C° 0 mm 1 mps 760 mmHg 77%
    17:00 +11°C° 0 mm 1 mps 760 mmHg 80%
    18:00 +11°C° 0 mm 1 mps 761 mmHg 83%
    19:00 +10°C° 0 mm 1 mps 761 mmHg 85%
    20:00 +10°C° 0 mm 1 mps 761 mmHg 87%
    21:00 +9°C° 0 mm 1 mps 762 mmHg 88%
    22:00 +9°C° 0 mm 1 mps 762 mmHg 90%
    23:00 +9°C° 0 mm 1 mps 762 mmHg 90%

    25 October, Wednesday

    Time Temperature Precipitation Wind Pressure Humidity
    00:00 +8°C° 0 mm 1 mps 762 mmHg 91%
    01:00 +8°C° 0 mm 1 mps 763 mmHg 92%
    02:00 +8°C° 0 mm 1 mps 763 mmHg 92%
    03:00 +8°C° 0 mm 1 mps 763 mmHg 93%
    04:00 +7°C° 0 mm 1 mps 763 mmHg 93%
    05:00 +7°C° 0 mm 1 mps 763 mmHg 94%
    06:00 +7°C° 0 mm 1 mps 763 mmHg 94%
    07:00 +7°C° 0 mm 1 mps 763 mmHg 94%
    08:00 +8°C° 0 mm 1 mps 763 mmHg 89%
    09:00 +9°C° 0 mm 2 mps 764 mmHg 84%
    10:00 +10°C° 0 mm 2 mps 764 mmHg 78%
    11:00 +12°C° 0 mm 2 mps 764 mmHg 75%
    12:00 +12°C° 0 mm 2 mps 763 mmHg 72%
    13:00 +12°C° 0 mm 3 mps 763 mmHg 69%
    14:00 +12°C° 0 mm 3 mps 763 mmHg 71%
    15:00 +11°C° 0 mm 3 mps 763 mmHg 73%
    16:00 +11°C° 0 mm 3 mps 763 mmHg 75%
    17:00 +11°C° 0 mm 3 mps 762 mmHg 75%
    18:00 +11°C° 0 mm 4 mps 762 mmHg 76%
    19:00 +10°C° 0 mm 4 mps 762 mmHg 76%
    20:00 +9°C° 0.5 mm 5 mps 762 mmHg 77%
    21:00 +9°C° 0.5 mm 5 mps 762 mmHg 78%
    22:00 +9°C° 0.5 mm 5 mps 762 mmHg 79%
    23:00 +11°C° 0.6 mm 4 mps 762 mmHg 82%
    Show more